This is the latest recevied weather packets stored in our database for station/object WX2NJ. If no packets are shown the sender has not sent any weather packets the latest 10 day(s).
| Time | Temp. | Humidity | Pressure | Rain* | Wind** | Luminosity | Snow |
|---|---|---|---|---|---|---|---|
| 1777499292 | 11.11° C | 81% | 1014.8 hPa | 0 mm | - | 89 W/m² | - |
| 1777498990 | 11.11° C | 81% | 1014.9 hPa | 0 mm | - | 95 W/m² | - |
| 1777498685 | 11.11° C | 80% | 1014.7 hPa | 0 mm | - | 108 W/m² | - |
| 1777498382 | 11.67° C | 80% | 1014.7 hPa | 0 mm | - | 139 W/m² | - |
| 1777498080 | 11.67° C | 80% | 1015.1 hPa | 0 mm | - | 133 W/m² | - |
| 1777497776 | 11.67° C | 80% | 1014.9 hPa | 0 mm | - | 95 W/m² | - |
| 1777497473 | 11.11° C | 80% | 1015.2 hPa | 0 mm | - | 91 W/m² | - |
| 1777497169 | 11.11° C | 80% | 1015.1 hPa | 0 mm | - | 83 W/m² | - |
| 1777496866 | 11.11° C | 79% | 1015.3 hPa | 0 mm | - | 91 W/m² | - |
| 1777496563 | 11.67° C | 79% | 1015.3 hPa | 0 mm | - | 84 W/m² | - |
| 1777496259 | 11.67° C | 78% | 1015.3 hPa | 0 mm | - | 91 W/m² | - |
| 1777495955 | 11.67° C | 78% | 1015.3 hPa | 0 mm | - | 94 W/m² | - |
| 1777495651 | 11.67° C | 79% | 1015.4 hPa | 0 mm | - | 105 W/m² | - |
| 1777495347 | 11.67° C | 78% | 1015.4 hPa | 0 mm | - | 105 W/m² | - |
| 1777495044 | 11.11° C | 78% | 1015.5 hPa | 0 mm | - | 89 W/m² | - |
| 1777494742 | 11.67° C | 78% | 1015.8 hPa | 0 mm | - | 75 W/m² | - |
| 1777494439 | 11.67° C | 77% | 1016.2 hPa | 0 mm | - | 76 W/m² | - |
| 1777494135 | 12.22° C | 76% | 1016 hPa | 0 mm | - | 91 W/m² | - |
| 1777493833 | 12.22° C | 76% | 1015.9 hPa | 0 mm | - | 144 W/m² | - |
| 1777493531 | 12.22° C | 76% | 1016 hPa | 0 mm | - | 209 W/m² | - |
| 1777493228 | 12.78° C | 75% | 1015.9 hPa | 0 mm | - | 212 W/m² | - |
| 1777492924 | 12.22° C | 75% | 1016.3 hPa | 0 mm | - | 179 W/m² | - |
| 1777492621 | 12.22° C | 74% | 1016.5 hPa | 0 mm | - | 168 W/m² | - |
| 1777492316 | 12.78° C | 74% | 1016.7 hPa | 0 mm | - | 198 W/m² | - |
| 1777492013 | 12.78° C | 75% | 1016.6 hPa | 0 mm | - | 202 W/m² | - |
* Rain latest hour (hover to see other rain measurements)
** Current wind speed in m/s (hover to see current wind gust speed)